Munising, MI

1:28 AM EST on February 23, 2017 (GMT -0500)
Munising

Weather History for KP53 - April, 2013

Change the Weather History Date:

Wednesday, April 10, 2013

  Actual Average (KISQ) Record (KISQ)
Temperature  
Mean Temperature 32 °F -  
Max Temperature 34 °F 43 °F 64 °F (1955)
Min Temperature 30 °F 27 °F 14 °F (2007)
Degree Days  
Heating Degree Days 33    
Moisture  
Dew Point 24 °F    
Average Humidity 70    
Maximum Humidity 78    
Minimum Humidity 54    
Precipitation  
Precipitation 0.00 in - - ()
Sea Level Pressure  
Sea Level Pressure 30.19 in    
Wind  
Wind Speed 14 mph (NNE)    
Max Wind Speed 18 mph    
Max Gust Speed -    
Averages and records for this station are not official NWS values.
T = Trace of Precipitation, MM = Missing Value Source: NWS Daily Summary

Daily Weather History Graph

Daily Weather History Graph

Search for Another Location

Airport or City:

Trip Planner

Search our weather history database for the weather conditions in past years. The results will help you decide how hot, cold, wet, or windy it might be!

Date:

Astronomy

Apr. 10, 2013 Rise Set
Actual Time 7:08 AM EDT 8:27 PM EDT
Civil Twilight 6:37 AM EDT 8:59 PM EDT
Nautical Twilight 5:59 AM EDT 9:36 PM EDT
Astronomical Twilight 5:19 AM EDT 10:17 PM EDT
Moon 7:02 AM EDT (4/10) 9:07 PM EDT (4/10)
Length of Visible Light 14h 21m
Length of Day
13h 19m
New Moon, 0% of the Moon is Illuminated
Apr 10
New Moon
Apr 18
First Quarter
Apr 25
Full
May 2
Last Quarter
May 9
New

Hourly Weather History & Observations

Time (EDT) Temp. Windchill Dew Point Humidity Pressure Visibility Wind Dir Wind Speed Gust Speed Precip Events Conditions
12:56 AM 32.0 °F 21.6 °F 25.0 °F 75% 30.19 in - NE 15.0 mph - N/A   Unknown
1:56 AM 30.9 °F 19.4 °F 24.1 °F 76% 30.17 in - NE 17.3 mph - N/A   Unknown
2:56 AM 30.9 °F 19.4 °F 24.1 °F 76% 30.19 in - NNE 17.3 mph - N/A   Unknown
3:56 AM 30.9 °F 20.2 °F 24.1 °F 76% 30.20 in - NNE 15.0 mph - N/A   Unknown
4:56 AM 30.9 °F 23.5 °F 24.1 °F 76% 30.21 in - NNE 8.1 mph - N/A   Unknown
5:56 AM 30.9 °F 21.7 °F 23.0 °F 72% 30.20 in - NNE 11.5 mph - N/A   Unknown
6:56 AM 30.9 °F 21.7 °F 21.9 °F 69% 30.17 in - NE 11.5 mph - N/A   Unknown
7:56 AM 30.9 °F 23.5 °F 21.9 °F 69% 30.17 in - NNE 8.1 mph - N/A   Unknown
8:56 AM 30.9 °F 21.7 °F 23.0 °F 72% 30.20 in - NNE 11.5 mph - N/A   Unknown
9:56 AM 32.0 °F 22.1 °F 24.1 °F 73% 30.18 in - NNE 13.8 mph - N/A   Unknown
10:56 AM 33.1 °F 22.2 °F 24.1 °F 70% 30.18 in - NNE 17.3 mph - N/A   Unknown
11:56 AM 34.0 °F 23.8 °F 23.0 °F 64% 30.22 in - NNE 16.1 mph - N/A   Unknown
12:56 PM 34.0 °F 23.0 °F 24.1 °F 67% 30.20 in - NE 18.4 mph - N/A   Unknown
1:56 PM 34.0 °F 23.8 °F 23.0 °F 64% 30.19 in - NNE 16.1 mph - N/A   Unknown
2:56 PM 34.0 °F 25.0 °F 23.0 °F 64% 30.23 in - NNE 12.7 mph - N/A   Unknown
3:56 PM 34.0 °F 23.8 °F 23.0 °F 64% 30.22 in - North 16.1 mph - N/A   Unknown
4:56 PM 34.0 °F 24.2 °F 24.1 °F 67% 30.19 in - North 15.0 mph - N/A   Unknown
5:56 PM 34.0 °F 24.2 °F 19.0 °F 54% 30.18 in - NNE 15.0 mph - N/A   Unknown
6:56 PM 34.0 °F 24.2 °F 21.0 °F 59% 30.17 in - NNE 15.0 mph - N/A   Unknown
7:56 PM 33.1 °F 25.5 °F 24.1 °F 70% 30.18 in - North 9.2 mph - N/A   Unknown
8:56 PM 33.1 °F 26.1 °F 24.1 °F 70% 30.18 in - North 8.1 mph - N/A   Unknown
9:56 PM 33.1 °F 25.5 °F 25.0 °F 72% 30.17 in - North 9.2 mph - N/A   Unknown
10:56 PM 33.1 °F 28.7 °F 26.1 °F 75% 30.18 in - NNE 4.6 mph - N/A   Unknown
11:56 PM 33.1 °F 26.9 °F 27.0 °F 78% 30.17 in - North 6.9 mph - N/A   Unknown